Date String (YYYY-MM-DD hh:mm:ss) UTC,Instrument flags,Ambient pressure (hPa),Sample flow (lpm),Bypass flow (lpm),Sample temperature (°C),Ambient temperature (°C),ASC tube jacket temperature (°C),LED temperature (°C),Box temperature (°C),Sample RH (%),Span deviation,Mass concentration (μg/m³),Mass concentration (μg/m³),Mass concentration (μg/m³)
DateTimeUTC,F1_M11,P_M11,Q1_M11,Q2_M11,T1_M11,T2_M11,T3_M11,T4_M11,T5_M11,U1_M11,ZSPAN_M11,X0_M11,X2_M11,X1_M11
2022-03-20 20:00:00,,0816.5,4.99,0.00,27.9,27.0,00.0,36.8,29.7,06.0,0000.0,0010.49,0004.23,0002.50
2022-03-20 20:01:00,,0816.5,5.02,0.00,27.8,27.0,00.0,36.8,29.7,05.8,0000.0,0011.31,0004.28,0002.51
2022-03-20 20:02:00,,0816.6,4.99,0.00,27.8,26.9,00.0,36.8,29.6,06.1,0000.0,0011.54,0004.26,0002.55
2022-03-20 20:03:00,,0816.4,5.02,0.00,27.8,27.0,00.0,36.8,29.6,06.8,0000.0,0011.58,0004.26,0002.58
2022-03-20 20:04:00,,0816.4,4.99,0.00,27.8,27.0,00.0,36.8,29.7,06.5,0000.0,0011.38,0004.29,0002.62
2022-03-20 20:05:00,,0816.3,5.01,0.00,27.9,27.0,00.0,36.8,29.7,06.3,0000.0,0011.06,0004.31,0002.67
2022-03-20 20:06:00,,0816.3,4.99,0.00,27.9,27.1,00.0,36.8,29.7,06.0,0000.0,0011.08,0004.34,0002.70
2022-03-20 20:07:00,,0816.4,5.02,0.00,27.9,27.1,00.0,36.8,29.7,06.0,0000.0,0011.34,0004.33,0002.71
2022-03-20 20:08:00,,0816.4,4.98,0.00,27.9,27.1,00.0,36.8,29.7,05.6,0000.0,0011.40,0004.33,0002.68
2022-03-20 20:09:00,,0816.4,5.01,0.00,27.9,27.1,00.0,36.8,29.6,05.6,0000.0,0011.23,0004.24,0002.68
2022-03-20 20:10:00,,0816.4,4.99,0.00,27.9,27.1,00.0,36.8,29.7,05.8,0000.0,0011.17,0004.21,0002.66
2022-03-20 20:11:00,,0816.4,5.00,0.00,27.9,27.1,00.0,36.8,29.7,06.5,0000.0,0011.06,0004.22,0002.67
2022-03-20 20:12:00,,0816.4,5.01,0.00,27.9,27.1,00.0,36.8,29.7,05.4,0000.0,0010.33,0004.30,0002.70
2022-03-20 20:13:00,,0816.4,4.99,0.00,27.9,27.0,00.0,36.8,29.7,05.7,0000.0,0009.92,0004.31,0002.69
2022-03-20 20:14:00,,0816.4,5.01,0.00,27.9,27.0,00.0,36.8,29.7,05.4,0000.0,0010.06,0004.38,0002.68
2022-03-20 20:15:00,,0816.4,5.00,0.00,27.9,27.0,00.0,36.8,29.7,05.4,0000.0,0010.46,0004.38,0002.69
2022-03-20 20:16:00,,0816.3,5.00,0.00,27.9,27.1,00.0,36.8,29.7,05.6,0000.0,0010.61,0004.42,0002.65
2022-03-20 20:17:00,,0816.4,5.01,0.00,27.9,27.1,00.0,36.8,29.7,06.3,0000.0,0010.68,0004.42,0002.64
2022-03-20 20:18:00,,0816.3,5.02,0.00,27.9,27.2,00.0,36.8,29.7,05.9,0000.0,0010.59,0004.45,0002.68
2022-03-20 20:19:00,,0816.3,4.98,0.00,27.9,27.2,00.0,36.8,29.7,05.9,0000.0,0010.49,0004.48,0002.74
2022-03-20 20:20:00,,0816.3,5.00,0.00,28.0,27.2,00.0,36.9,29.8,05.8,0000.0,0010.59,0004.52,0002.76
2022-03-20 20:21:00,,0816.3,5.02,0.00,28.0,27.2,00.0,36.9,29.8,05.9,0000.0,0010.82,0004.57,0002.80
2022-03-20 20:22:00,,0816.3,4.99,0.00,28.0,27.3,00.0,36.9,29.8,06.0,0000.0,0010.73,0004.55,0002.80
2022-03-20 20:23:00,,0816.3,4.99,0.00,28.0,27.3,00.0,36.9,29.8,05.7,0000.0,0010.62,0004.49,0002.79
2022-03-20 20:24:00,,0816.2,5.01,0.00,28.0,27.3,00.0,36.9,29.9,04.8,0000.0,0011.42,0004.46,0002.77
2022-03-20 20:25:00,,0816.2,5.00,0.00,28.0,27.3,00.0,36.9,29.9,05.0,0000.0,0011.20,0004.41,0002.74
2022-03-20 20:26:00,,0816.1,5.00,0.00,28.0,27.3,00.0,36.9,29.9,04.9,0000.0,0010.75,0004.39,0002.70
2022-03-20 20:27:00,,0816.1,4.99,0.00,28.1,27.3,00.0,36.9,29.9,05.4,0000.0,0010.70,0004.40,0002.70
2022-03-20 20:28:00,,0816.2,4.98,0.00,28.1,27.4,00.0,36.9,29.9,05.6,0000.0,0011.38,0004.36,0002.67
2022-03-20 20:29:00,,0816.1,5.01,0.00,28.1,27.4,00.0,36.9,29.9,05.3,0000.0,0011.70,0004.30,0002.61
2022-03-20 20:30:00,,0816.1,5.00,0.00,28.1,27.4,00.0,37.0,29.9,05.2,0000.0,0011.58,0004.24,0002.55
2022-03-20 20:31:00,,0816.1,4.99,0.00,28.1,27.4,00.0,37.0,29.9,05.3,0000.0,0011.50,0004.19,0002.50
2022-03-20 20:32:00,,0816.1,5.01,0.00,28.1,27.4,00.0,37.0,29.9,05.2,0000.0,0011.44,0004.15,0002.45
2022-03-20 20:33:00,,0816.1,5.00,0.00,28.1,27.4,00.0,37.0,29.9,05.6,0000.0,0011.39,0004.14,0002.45
2022-03-20 20:34:00,,0816.1,5.00,0.00,28.1,27.4,00.0,37.0,29.9,05.7,0000.0,0011.40,0004.15,0002.45
2022-03-20 20:35:00,,0816.0,5.01,0.00,28.2,27.4,00.0,37.0,30.0,05.8,0000.0,0010.84,0004.21,0002.47
2022-03-20 20:36:00,,0816.1,4.99,0.00,28.2,27.4,00.0,37.0,30.0,06.2,0000.0,0010.84,0004.24,0002.49
2022-03-20 20:37:00,,0816.2,5.00,0.00,28.2,27.4,00.0,37.0,30.0,05.8,0000.0,0011.15,0004.30,0002.52
2022-03-20 20:38:00,,0816.1,5.00,0.00,28.2,27.4,00.0,37.1,30.0,05.7,0000.0,0011.60,0004.31,0002.53
2022-03-20 20:39:00,,0816.1,4.99,0.00,28.2,27.5,00.0,37.1,30.0,05.4,0000.0,0011.05,0004.36,0002.53
2022-03-20 20:40:00,,0816.2,5.01,0.00,28.2,27.4,00.0,37.1,30.0,05.2,0000.0,0010.48,0004.34,0002.54
2022-03-20 20:41:00,,0816.4,5.00,0.00,28.2,27.5,00.0,37.1,30.0,05.5,0000.0,0010.99,0004.32,0002.54
2022-03-20 20:42:00,,0816.4,4.99,0.00,28.2,27.5,00.0,37.1,30.0,05.0,0000.0,0010.89,0004.31,0002.55
2022-03-20 20:43:00,,0816.5,5.01,0.00,28.2,27.5,00.0,37.1,30.0,05.0,0000.0,0010.95,0004.32,0002.55
2022-03-20 20:44:00,,0816.1,4.99,0.00,28.3,27.5,00.0,37.1,30.1,05.0,0000.0,0011.59,0004.31,0002.52
2022-03-20 20:45:00,,0816.2,5.02,0.00,28.3,27.5,00.0,37.1,30.0,04.9,0000.0,0011.49,0004.25,0002.46
2022-03-20 20:46:00,,0816.3,5.00,0.00,28.3,27.5,00.0,37.1,30.0,05.0,0000.0,0011.39,0004.15,0002.43
2022-03-20 20:47:00,,0816.4,5.00,0.00,28.2,27.5,00.0,37.1,30.0,05.0,0000.0,0011.78,0004.12,0002.39
2022-03-20 20:48:00,,0816.5,4.99,0.00,28.2,27.5,00.0,37.1,30.0,05.1,0000.0,0011.47,0004.03,0002.34
2022-03-20 20:49:00,,0816.0,5.01,0.00,28.2,27.5,00.0,37.1,30.0,05.0,0000.0,0010.73,0003.92,0002.31
2022-03-20 20:50:00,,0816.0,5.01,0.00,28.2,27.5,00.0,37.2,30.0,05.1,0000.0,0010.68,0003.85,0002.29
2022-03-20 20:51:00,,0816.0,4.99,0.00,28.3,27.5,00.0,37.2,30.0,05.2,0000.0,0011.05,0003.90,0002.27
2022-03-20 20:52:00,,0816.0,5.02,0.00,28.3,27.5,00.0,37.2,30.0,04.9,0000.0,0010.82,0003.94,0002.25
2022-03-20 20:53:00,,0816.0,4.98,0.00,28.3,27.5,00.0,37.2,30.0,05.0,0000.0,0010.84,0003.98,0002.23
2022-03-20 20:54:00,,0816.0,5.02,0.00,28.3,27.5,00.0,37.2,30.0,05.0,0000.0,0010.71,0003.97,0002.24
2022-03-20 20:55:00,,0816.0,5.00,0.00,28.3,27.5,00.0,37.2,30.0,04.8,0000.0,0009.80,0003.91,0002.22
2022-03-20 20:56:00,,0816.0,4.99,0.00,28.3,27.5,00.0,37.2,30.0,04.8,0000.0,0010.18,0003.91,0002.23
2022-03-20 20:57:00,,0816.0,5.01,0.00,28.3,27.5,00.0,37.2,30.1,05.0,0000.0,0010.09,0003.95,0002.23
2022-03-20 20:58:00,,0816.0,4.98,0.00,28.3,27.5,00.0,37.2,30.1,05.1,0000.0,0009.75,0003.95,0002.25
2022-03-20 20:59:00,,0816.0,5.00,0.00,28.3,27.5,00.0,37.2,30.1,05.2,0000.0,0010.08,0003.99,0002.27
